Year,Month,Day,Hour,Minute,Value (Times are PST for temperature in C)
2017,09,27,00,00,11.40
2017,09,27,00,01,11.40
2017,09,27,00,02,11.40
2017,09,27,00,03,11.40
2017,09,27,00,04,11.40
2017,09,27,00,05,11.40
2017,09,27,00,06,11.40
2017,09,27,00,07,11.40
2017,09,27,00,08,11.40
2017,09,27,00,09,11.40
2017,09,27,00,10,11.40
2017,09,27,00,11,11.40
2017,09,27,00,12,11.40
2017,09,27,00,13,11.40
2017,09,27,00,14,11.40
2017,09,27,00,15,11.40
2017,09,27,00,16,11.40
2017,09,27,00,17,11.40
2017,09,27,00,18,11.40
2017,09,27,00,19,11.40
2017,09,27,00,20,11.30
2017,09,27,00,21,11.30
2017,09,27,00,22,11.30
2017,09,27,00,23,11.40
2017,09,27,00,24,11.40
2017,09,27,00,25,11.40
2017,09,27,00,26,11.40
2017,09,27,00,27,11.30
2017,09,27,00,28,11.30
2017,09,27,00,29,11.30
2017,09,27,00,30,11.30
2017,09,27,00,31,11.30
2017,09,27,00,32,11.30
2017,09,27,00,33,11.30
2017,09,27,00,34,11.30
2017,09,27,00,35,11.30
2017,09,27,00,36,11.20
2017,09,27,00,37,11.20
2017,09,27,00,38,11.20
2017,09,27,00,39,11.10
2017,09,27,00,40,11.10
2017,09,27,00,41,11.20
2017,09,27,00,42,11.20
2017,09,27,00,43,11.20
2017,09,27,00,44,11.20
2017,09,27,00,45,11.20
2017,09,27,00,46,11.20
2017,09,27,00,47,11.20
2017,09,27,00,48,11.20
2017,09,27,00,49,11.20
2017,09,27,00,50,11.20
2017,09,27,00,51,11.20
2017,09,27,00,52,11.20
2017,09,27,00,53,11.20
2017,09,27,00,54,11.20
2017,09,27,00,55,11.20
2017,09,27,00,56,11.20
2017,09,27,00,57,11.20
2017,09,27,00,58,11.10
2017,09,27,00,59,11.20
2017,09,27,01,00,11.20
2017,09,27,01,01,11.20
2017,09,27,01,02,11.20
2017,09,27,01,03,11.20
2017,09,27,01,04,11.20
2017,09,27,01,05,11.20
2017,09,27,01,06,11.20
2017,09,27,01,07,11.20
2017,09,27,01,08,11.10
2017,09,27,01,09,11.10
2017,09,27,01,10,11.10
2017,09,27,01,11,11.10
2017,09,27,01,12,11.10
2017,09,27,01,13,11.10
2017,09,27,01,14,11.10
2017,09,27,01,15,11.20
2017,09,27,01,16,11.20
2017,09,27,01,17,11.20
2017,09,27,01,18,11.20
2017,09,27,01,19,11.20
2017,09,27,01,20,11.30
2017,09,27,01,21,11.30
2017,09,27,01,22,11.30
2017,09,27,01,23,11.30
2017,09,27,01,24,11.30
2017,09,27,01,25,11.30
2017,09,27,01,26,11.30
2017,09,27,01,27,11.30
2017,09,27,01,28,11.30
2017,09,27,01,29,11.30
2017,09,27,01,30,11.30
2017,09,27,01,31,11.30
2017,09,27,01,32,11.30
2017,09,27,01,33,11.30
2017,09,27,01,34,11.30
2017,09,27,01,35,11.30
2017,09,27,01,36,11.20
2017,09,27,01,37,11.20
2017,09,27,01,38,11.20
2017,09,27,01,39,11.20
2017,09,27,01,40,11.10
2017,09,27,01,41,11.10
2017,09,27,01,42,11.10
2017,09,27,01,43,11.00
2017,09,27,01,44,10.90
2017,09,27,01,45,10.90
2017,09,27,01,46,11.00
2017,09,27,01,47,11.00
2017,09,27,01,48,11.00
2017,09,27,01,49,11.00
2017,09,27,01,50,11.00
2017,09,27,01,51,11.00
2017,09,27,01,52,11.00
2017,09,27,01,53,11.00
2017,09,27,01,54,11.00
2017,09,27,01,55,10.90
2017,09,27,01,56,10.90
2017,09,27,01,57,10.80
2017,09,27,01,58,10.80
2017,09,27,01,59,10.70
2017,09,27,02,00,10.70
2017,09,27,02,01,10.70
2017,09,27,02,02,10.60
2017,09,27,02,03,10.60
2017,09,27,02,04,10.60
2017,09,27,02,05,10.60
2017,09,27,02,06,10.60
2017,09,27,02,07,10.60
2017,09,27,02,08,10.60
2017,09,27,02,09,10.60
2017,09,27,02,10,10.60
2017,09,27,02,11,10.60
2017,09,27,02,12,10.60
2017,09,27,02,13,10.60
2017,09,27,02,14,10.70
2017,09,27,02,15,10.70
2017,09,27,02,16,10.70
2017,09,27,02,17,10.70
2017,09,27,02,18,10.70
2017,09,27,02,19,10.70
2017,09,27,02,20,10.80
2017,09,27,02,21,10.90
2017,09,27,02,22,10.90
2017,09,27,02,23,10.90
2017,09,27,02,24,10.80
2017,09,27,02,25,10.80
2017,09,27,02,26,10.80
2017,09,27,02,27,10.80
2017,09,27,02,28,10.80
2017,09,27,02,29,10.80
2017,09,27,02,30,10.80
2017,09,27,02,31,10.80
2017,09,27,02,32,10.90
2017,09,27,02,33,10.90
2017,09,27,02,34,10.80
2017,09,27,02,35,10.80
2017,09,27,02,36,10.80
2017,09,27,02,37,10.70
2017,09,27,02,38,10.70
2017,09,27,02,39,10.60
2017,09,27,02,40,10.60
2017,09,27,02,41,10.60
2017,09,27,02,42,10.60
2017,09,27,02,43,10.50
2017,09,27,02,44,10.50
2017,09,27,02,45,10.50
2017,09,27,02,46,10.50
2017,09,27,02,47,10.50
2017,09,27,02,48,10.50
2017,09,27,02,49,10.60
2017,09,27,02,50,10.60
2017,09,27,02,51,10.60
2017,09,27,02,52,10.60
2017,09,27,02,53,10.60
2017,09,27,02,54,10.60
2017,09,27,02,55,10.60
2017,09,27,02,56,10.50
2017,09,27,02,57,10.50
2017,09,27,02,58,10.50
2017,09,27,02,59,10.50
2017,09,27,03,00,10.60
2017,09,27,03,01,10.60
2017,09,27,03,02,10.60
2017,09,27,03,03,10.60
2017,09,27,03,04,10.60
2017,09,27,03,05,10.60
2017,09,27,03,06,10.60
2017,09,27,03,07,10.60
2017,09,27,03,08,10.60
2017,09,27,03,09,10.60
2017,09,27,03,10,10.60
2017,09,27,03,11,10.60
2017,09,27,03,12,10.70
2017,09,27,03,13,10.70
2017,09,27,03,14,10.60
2017,09,27,03,15,10.60
2017,09,27,03,16,10.60
2017,09,27,03,17,10.50
2017,09,27,03,18,10.40
2017,09,27,03,19,10.40
2017,09,27,03,20,10.40
2017,09,27,03,21,10.40
2017,09,27,03,22,10.40
2017,09,27,03,23,10.40
2017,09,27,03,24,10.40
2017,09,27,03,25,10.40
2017,09,27,03,26,10.40
2017,09,27,03,27,10.40
2017,09,27,03,28,10.40
2017,09,27,03,29,10.40
2017,09,27,03,30,10.40
2017,09,27,03,31,10.40
2017,09,27,03,32,10.30
2017,09,27,03,33,10.30
2017,09,27,03,34,10.30
2017,09,27,03,35,10.20
2017,09,27,03,36,10.20
2017,09,27,03,37,10.20
2017,09,27,03,38,10.20
2017,09,27,03,39,10.20
2017,09,27,03,40,10.20
2017,09,27,03,41,10.20
2017,09,27,03,42,10.20
2017,09,27,03,43,10.20
2017,09,27,03,44,10.10
2017,09,27,03,45,10.10
2017,09,27,03,46,10.10
2017,09,27,03,47,10.00
2017,09,27,03,48,10.00
2017,09,27,03,49,9.90
2017,09,27,03,50,9.90
2017,09,27,03,51,9.90
2017,09,27,03,52,9.90
2017,09,27,03,53,10.00
2017,09,27,03,54,10.00
2017,09,27,03,55,10.00
2017,09,27,03,56,10.10
2017,09,27,03,57,10.10
2017,09,27,03,58,10.10
2017,09,27,03,59,10.10
2017,09,27,04,00,10.10
2017,09,27,04,01,10.10
2017,09,27,04,02,10.20
2017,09,27,04,03,10.20
2017,09,27,04,04,10.20
2017,09,27,04,05,10.20
2017,09,27,04,06,10.10
2017,09,27,04,07,10.10
2017,09,27,04,08,10.10
2017,09,27,04,09,10.00
2017,09,27,04,10,10.00
2017,09,27,04,11,9.90
2017,09,27,04,12,9.90
2017,09,27,04,13,9.90
2017,09,27,04,14,9.80
2017,09,27,04,15,9.80
2017,09,27,04,16,9.80
2017,09,27,04,17,9.80
2017,09,27,04,18,9.80
2017,09,27,04,19,9.90
2017,09,27,04,20,9.90
2017,09,27,04,21,9.90
2017,09,27,04,22,9.90
2017,09,27,04,23,9.90
2017,09,27,04,24,9.90
2017,09,27,04,25,9.90
2017,09,27,04,26,9.90
2017,09,27,04,27,9.90
2017,09,27,04,28,9.80
2017,09,27,04,29,9.80
2017,09,27,04,30,9.70
2017,09,27,04,31,9.70
2017,09,27,04,32,9.70
2017,09,27,04,33,9.70
2017,09,27,04,34,9.80
2017,09,27,04,35,9.80
2017,09,27,04,36,9.80
2017,09,27,04,37,9.80
2017,09,27,04,38,9.80
2017,09,27,04,39,9.80
2017,09,27,04,40,9.80
2017,09,27,04,41,9.80
2017,09,27,04,42,9.80
2017,09,27,04,43,9.80
2017,09,27,04,44,9.80
2017,09,27,04,45,9.70
2017,09,27,04,46,9.70
2017,09,27,04,47,9.70
2017,09,27,04,48,9.70
2017,09,27,04,49,9.70
2017,09,27,04,50,9.70
2017,09,27,04,51,9.60
2017,09,27,04,52,9.60
2017,09,27,04,53,9.50
2017,09,27,04,54,9.50
2017,09,27,04,55,9.40
2017,09,27,04,56,9.40
2017,09,27,04,57,9.40
2017,09,27,04,58,9.40
2017,09,27,04,59,9.40
2017,09,27,05,00,9.40
2017,09,27,05,01,9.40
2017,09,27,05,02,9.40
2017,09,27,05,03,9.40
2017,09,27,05,04,9.40
2017,09,27,05,05,9.30
2017,09,27,05,06,9.30
2017,09,27,05,07,9.30
2017,09,27,05,08,9.30
2017,09,27,05,09,9.30
2017,09,27,05,10,9.30
2017,09,27,05,11,9.30
2017,09,27,05,12,9.30
2017,09,27,05,13,9.30
2017,09,27,05,14,9.30
2017,09,27,05,15,9.30
2017,09,27,05,16,9.30
2017,09,27,05,17,9.20
2017,09,27,05,18,9.20
2017,09,27,05,19,9.20
2017,09,27,05,20,9.20
2017,09,27,05,21,9.20
2017,09,27,05,22,9.20
2017,09,27,05,23,9.20
2017,09,27,05,24,9.20
2017,09,27,05,25,9.20
2017,09,27,05,26,9.10
2017,09,27,05,27,9.10
2017,09,27,05,28,9.10
2017,09,27,05,29,9.10
2017,09,27,05,30,9.10
2017,09,27,05,31,9.10
2017,09,27,05,32,9.10
2017,09,27,05,33,9.10
2017,09,27,05,34,9.10
2017,09,27,05,35,9.10
2017,09,27,05,36,9.20
2017,09,27,05,37,9.20
2017,09,27,05,38,9.20
2017,09,27,05,39,9.20
2017,09,27,05,40,9.20
2017,09,27,05,41,9.30
2017,09,27,05,42,9.30
2017,09,27,05,43,9.30
2017,09,27,05,44,9.20
2017,09,27,05,45,9.20
2017,09,27,05,46,9.20
2017,09,27,05,47,9.20
2017,09,27,05,48,9.20
2017,09,27,05,49,9.20
2017,09,27,05,50,9.20
2017,09,27,05,51,9.20
2017,09,27,05,52,9.20
2017,09,27,05,53,9.10
2017,09,27,05,54,9.10
2017,09,27,05,55,9.10
2017,09,27,05,56,9.10
2017,09,27,05,57,9.10
2017,09,27,05,58,9.10
2017,09,27,05,59,9.10
2017,09,27,06,00,9.10
2017,09,27,06,01,9.10
2017,09,27,06,02,9.20
2017,09,27,06,03,9.20
2017,09,27,06,04,9.20
2017,09,27,06,05,9.10
2017,09,27,06,06,9.10
2017,09,27,06,07,9.10
2017,09,27,06,08,9.10
2017,09,27,06,09,9.10
2017,09,27,06,10,9.10
2017,09,27,06,11,9.10
2017,09,27,06,12,9.10
2017,09,27,06,13,9.10
2017,09,27,06,14,9.10
2017,09,27,06,15,9.10
2017,09,27,06,16,9.10
2017,09,27,06,17,9.10
2017,09,27,06,18,9.10
2017,09,27,06,19,9.10
2017,09,27,06,20,9.10
2017,09,27,06,21,9.10
2017,09,27,06,22,9.10
2017,09,27,06,23,9.10
2017,09,27,06,24,9.10
2017,09,27,06,25,9.10
2017,09,27,06,26,9.10
2017,09,27,06,27,9.10
2017,09,27,06,28,9.10
2017,09,27,06,29,9.10
2017,09,27,06,30,9.00
2017,09,27,06,31,9.00
2017,09,27,06,32,8.90
2017,09,27,06,33,8.90
2017,09,27,06,34,8.90
2017,09,27,06,35,8.90
2017,09,27,06,36,8.90
2017,09,27,06,37,8.90
2017,09,27,06,38,8.90
2017,09,27,06,39,8.80
2017,09,27,06,40,8.80
2017,09,27,06,41,8.80
2017,09,27,06,42,8.80
2017,09,27,06,43,8.80
2017,09,27,06,44,8.80
2017,09,27,06,45,8.80
2017,09,27,06,46,8.80
2017,09,27,06,47,8.80
2017,09,27,06,48,8.80
2017,09,27,06,49,8.80
2017,09,27,06,50,8.90
2017,09,27,06,51,8.90
2017,09,27,06,52,8.90
2017,09,27,06,53,8.90
2017,09,27,06,54,8.90
2017,09,27,06,55,8.90
2017,09,27,06,56,9.00
2017,09,27,06,57,9.00
2017,09,27,06,58,9.00
2017,09,27,06,59,8.90
2017,09,27,07,00,8.90
2017,09,27,07,01,8.90
2017,09,27,07,02,8.90
2017,09,27,07,03,8.90
2017,09,27,07,04,8.90
2017,09,27,07,05,8.90
2017,09,27,07,06,8.90
2017,09,27,07,07,8.80
2017,09,27,07,08,8.80
2017,09,27,07,09,8.80
2017,09,27,07,10,8.80
2017,09,27,07,11,8.80
2017,09,27,07,12,8.80
2017,09,27,07,13,8.80
2017,09,27,07,14,8.80
2017,09,27,07,15,8.80
2017,09,27,07,16,8.80
2017,09,27,07,17,8.80
2017,09,27,07,18,8.70
2017,09,27,07,19,8.70
2017,09,27,07,20,8.70
2017,09,27,07,21,8.70
2017,09,27,07,22,8.70
2017,09,27,07,23,8.70
2017,09,27,07,24,8.70
2017,09,27,07,25,8.70
2017,09,27,07,26,8.70
2017,09,27,07,27,8.70
2017,09,27,07,28,8.70
2017,09,27,07,29,8.70
2017,09,27,07,30,8.70
2017,09,27,07,31,8.70
2017,09,27,07,32,8.70
2017,09,27,07,33,8.70
2017,09,27,07,34,8.70
2017,09,27,07,35,8.70
2017,09,27,07,36,8.70
2017,09,27,07,37,8.70
2017,09,27,07,38,8.80
2017,09,27,07,39,8.80
2017,09,27,07,40,8.80
2017,09,27,07,41,8.90
2017,09,27,07,42,8.90
2017,09,27,07,43,8.90
2017,09,27,07,44,8.90
2017,09,27,07,45,8.90
2017,09,27,07,46,8.90
2017,09,27,07,47,8.90
2017,09,27,07,48,8.90
2017,09,27,07,49,9.00
2017,09,27,07,50,9.00
2017,09,27,07,51,9.00
2017,09,27,07,52,9.10
2017,09,27,07,53,9.10
2017,09,27,07,54,9.20
2017,09,27,07,55,9.20
2017,09,27,07,56,9.30
2017,09,27,07,57,9.30
2017,09,27,07,58,9.30
2017,09,27,07,59,9.40
2017,09,27,08,00,9.40
2017,09,27,08,01,9.40
2017,09,27,08,02,9.50
2017,09,27,08,03,9.50
2017,09,27,08,04,9.60
2017,09,27,08,05,9.60
2017,09,27,08,06,9.60
2017,09,27,08,07,9.60
2017,09,27,08,08,9.70
2017,09,27,08,09,9.70
2017,09,27,08,10,9.80
2017,09,27,08,11,9.80
2017,09,27,08,12,9.90
2017,09,27,08,13,10.00
2017,09,27,08,14,10.00
2017,09,27,08,15,10.10
2017,09,27,08,16,10.20
2017,09,27,08,17,10.30
2017,09,27,08,18,10.30
2017,09,27,08,19,10.40
2017,09,27,08,20,10.50
2017,09,27,08,21,10.60
2017,09,27,08,22,10.60
2017,09,27,08,23,10.70
2017,09,27,08,24,10.80
2017,09,27,08,25,10.80
2017,09,27,08,26,10.90
2017,09,27,08,27,11.00
2017,09,27,08,28,11.10
2017,09,27,08,29,11.10
2017,09,27,08,30,11.20
2017,09,27,08,31,11.30
2017,09,27,08,32,11.30
2017,09,27,08,33,11.40
2017,09,27,08,34,11.60
2017,09,27,08,35,11.70
2017,09,27,08,36,11.80
2017,09,27,08,37,11.90
2017,09,27,08,38,12.10
2017,09,27,08,39,12.10
2017,09,27,08,40,12.20
2017,09,27,08,41,12.30
2017,09,27,08,42,12.40
2017,09,27,08,43,12.40
2017,09,27,08,44,12.50
2017,09,27,08,45,12.50
2017,09,27,08,46,12.60
2017,09,27,08,47,12.60
2017,09,27,08,48,12.60
2017,09,27,08,49,12.60
2017,09,27,08,50,12.70
2017,09,27,08,51,12.70
2017,09,27,08,52,12.70
2017,09,27,08,53,12.70
2017,09,27,08,54,12.60
2017,09,27,08,55,12.60
2017,09,27,08,56,12.70
2017,09,27,08,57,12.70
2017,09,27,08,58,12.70
2017,09,27,08,59,12.70
2017,09,27,09,00,12.70
2017,09,27,09,01,12.70
2017,09,27,09,02,12.60
2017,09,27,09,03,12.60
2017,09,27,09,04,12.60
2017,09,27,09,05,12.50
2017,09,27,09,06,12.50
2017,09,27,09,07,12.50
2017,09,27,09,08,12.50
2017,09,27,09,09,12.50
2017,09,27,09,10,12.50
2017,09,27,09,11,12.40
2017,09,27,09,12,12.40
2017,09,27,09,13,12.50
2017,09,27,09,14,12.50
2017,09,27,09,15,12.50
2017,09,27,09,16,12.60
2017,09,27,09,17,12.60
2017,09,27,09,18,12.60
2017,09,27,09,19,12.70
2017,09,27,09,20,12.70
2017,09,27,09,21,12.70
2017,09,27,09,22,12.70
2017,09,27,09,23,12.80
2017,09,27,09,24,12.80
2017,09,27,09,25,12.80
2017,09,27,09,26,12.80
2017,09,27,09,27,12.90
2017,09,27,09,28,12.90
2017,09,27,09,29,12.90
2017,09,27,09,30,12.90
2017,09,27,09,31,12.90
2017,09,27,09,32,12.90
2017,09,27,09,33,12.90
2017,09,27,09,34,13.00
2017,09,27,09,35,13.00
2017,09,27,09,36,13.10
2017,09,27,09,37,13.10
2017,09,27,09,38,13.10
2017,09,27,09,39,13.10
2017,09,27,09,40,13.10
2017,09,27,09,41,13.20
2017,09,27,09,42,13.20
2017,09,27,09,43,13.20
2017,09,27,09,44,13.20
2017,09,27,09,45,13.20
2017,09,27,09,46,13.20
2017,09,27,09,47,13.30
2017,09,27,09,48,13.30
2017,09,27,09,49,13.40
2017,09,27,09,50,13.50
2017,09,27,09,51,13.60
2017,09,27,09,52,13.60
2017,09,27,09,53,13.70
2017,09,27,09,54,13.70
2017,09,27,09,55,13.70
2017,09,27,09,56,13.70
2017,09,27,09,57,13.70
2017,09,27,09,58,13.70
2017,09,27,09,59,13.80
2017,09,27,10,00,13.80
2017,09,27,10,01,13.90
2017,09,27,10,02,14.00
2017,09,27,10,03,14.00
2017,09,27,10,04,14.10
2017,09,27,10,05,14.10
2017,09,27,10,06,14.20
2017,09,27,10,07,14.20
2017,09,27,10,08,14.20
2017,09,27,10,09,14.10
2017,09,27,10,10,14.10
2017,09,27,10,11,14.20
2017,09,27,10,12,14.20
2017,09,27,10,13,14.20
2017,09,27,10,14,14.20
2017,09,27,10,15,14.20
2017,09,27,10,16,14.30
2017,09,27,10,17,14.30
2017,09,27,10,18,14.30
2017,09,27,10,19,14.30
2017,09,27,10,20,14.30
2017,09,27,10,21,14.20
2017,09,27,10,22,14.30
2017,09,27,10,23,14.40
2017,09,27,10,24,14.40
2017,09,27,10,25,14.50
2017,09,27,10,26,14.60
2017,09,27,10,27,14.60
2017,09,27,10,28,14.60
2017,09,27,10,29,14.60
2017,09,27,10,30,14.60
2017,09,27,10,31,14.70
2017,09,27,10,32,14.70
2017,09,27,10,33,14.80
2017,09,27,10,34,14.90
2017,09,27,10,35,15.00
2017,09,27,10,36,15.00
2017,09,27,10,37,15.00
2017,09,27,10,38,15.00
2017,09,27,10,39,15.00
2017,09,27,10,40,15.10
2017,09,27,10,41,15.20
2017,09,27,10,42,15.20
2017,09,27,10,43,15.20
2017,09,27,10,44,15.10
2017,09,27,10,45,15.00
2017,09,27,10,46,15.00
2017,09,27,10,47,15.00
2017,09,27,10,48,15.00
2017,09,27,10,49,15.00
2017,09,27,10,50,15.10
2017,09,27,10,51,15.10
2017,09,27,10,52,15.10
2017,09,27,10,53,15.20
2017,09,27,10,54,15.20
2017,09,27,10,55,15.30
2017,09,27,10,56,15.40
2017,09,27,10,57,15.40
2017,09,27,10,58,15.50
2017,09,27,10,59,15.60
2017,09,27,11,00,15.70
2017,09,27,11,01,15.70
2017,09,27,11,02,15.80
2017,09,27,11,03,15.80
2017,09,27,11,04,15.80
2017,09,27,11,05,15.70
2017,09,27,11,06,15.70
2017,09,27,11,07,15.70
2017,09,27,11,08,15.60
2017,09,27,11,09,15.60
2017,09,27,11,10,15.60
2017,09,27,11,11,15.70
2017,09,27,11,12,15.70
2017,09,27,11,13,15.70
2017,09,27,11,14,15.70
2017,09,27,11,15,15.70
2017,09,27,11,16,15.70
2017,09,27,11,17,15.80
2017,09,27,11,18,15.80
2017,09,27,11,19,15.90
2017,09,27,11,20,16.00
2017,09,27,11,21,16.00
2017,09,27,11,22,16.00
2017,09,27,11,23,16.00
2017,09,27,11,24,16.00
2017,09,27,11,25,15.90
2017,09,27,11,26,15.90
2017,09,27,11,27,15.90
2017,09,27,11,28,16.00
2017,09,27,11,29,16.00
2017,09,27,11,30,16.00
2017,09,27,11,31,16.00
2017,09,27,11,32,16.10
2017,09,27,11,33,16.10
2017,09,27,11,34,16.20
2017,09,27,11,35,16.20
2017,09,27,11,36,16.30
2017,09,27,11,37,16.40
2017,09,27,11,38,16.50
2017,09,27,11,39,16.50
2017,09,27,11,40,16.60
2017,09,27,11,41,16.60
2017,09,27,11,42,16.70
2017,09,27,11,43,16.70
2017,09,27,11,44,16.60
2017,09,27,11,45,16.60
2017,09,27,11,46,16.60
2017,09,27,11,47,16.70
2017,09,27,11,48,16.70
2017,09,27,11,49,16.80
2017,09,27,11,50,16.80
2017,09,27,11,51,16.80
2017,09,27,11,52,16.80
2017,09,27,11,53,16.80
2017,09,27,11,54,16.90
2017,09,27,11,55,17.00
2017,09,27,11,56,17.10
2017,09,27,11,57,17.10
2017,09,27,11,58,17.20
2017,09,27,11,59,17.30
2017,09,27,12,00,17.30
2017,09,27,12,01,17.30
2017,09,27,12,02,17.30
2017,09,27,12,03,17.30
2017,09,27,12,04,17.30
2017,09,27,12,05,17.30
2017,09,27,12,06,17.40
2017,09,27,12,07,17.50
2017,09,27,12,08,17.60
2017,09,27,12,09,17.70
2017,09,27,12,10,17.70
2017,09,27,12,11,17.70
2017,09,27,12,12,17.70
2017,09,27,12,13,17.80
2017,09,27,12,14,17.80
2017,09,27,12,15,17.80
2017,09,27,12,16,17.70
2017,09,27,12,17,17.80
2017,09,27,12,18,17.90
2017,09,27,12,19,18.00
2017,09,27,12,20,18.00
2017,09,27,12,21,18.10
2017,09,27,12,22,18.20
2017,09,27,12,23,18.30
2017,09,27,12,24,18.20
2017,09,27,12,25,18.20
2017,09,27,12,26,18.10
2017,09,27,12,27,18.10
2017,09,27,12,28,18.10
2017,09,27,12,29,18.20
2017,09,27,12,30,18.30
2017,09,27,12,31,18.30
2017,09,27,12,32,18.30
2017,09,27,12,33,18.30
2017,09,27,12,34,18.30
2017,09,27,12,35,18.30
2017,09,27,12,36,18.30
2017,09,27,12,37,18.30
2017,09,27,12,38,18.40
2017,09,27,12,39,18.40
2017,09,27,12,40,18.50
2017,09,27,12,41,18.60
2017,09,27,12,42,18.60
2017,09,27,12,43,18.50
2017,09,27,12,44,18.50
2017,09,27,12,45,18.50
2017,09,27,12,46,18.50
2017,09,27,12,47,18.50
2017,09,27,12,48,18.50
2017,09,27,12,49,18.60
2017,09,27,12,50,18.70
2017,09,27,12,51,18.70
2017,09,27,12,52,18.70
2017,09,27,12,53,18.80
2017,09,27,12,54,18.80
2017,09,27,12,55,18.90
2017,09,27,12,56,18.90
2017,09,27,12,57,18.90
2017,09,27,12,58,18.90
2017,09,27,12,59,18.90
2017,09,27,13,00,18.90
2017,09,27,13,01,18.90
2017,09,27,13,02,18.90
2017,09,27,13,03,19.00
2017,09,27,13,04,19.00
2017,09,27,13,05,19.10
2017,09,27,13,06,19.20
2017,09,27,13,07,19.20
2017,09,27,13,08,19.20
2017,09,27,13,09,19.20
2017,09,27,13,10,19.20
2017,09,27,13,11,19.20
2017,09,27,13,12,19.20
2017,09,27,13,13,19.20
2017,09,27,13,14,19.20
2017,09,27,13,15,19.20
2017,09,27,13,16,19.20
2017,09,27,13,17,19.20
2017,09,27,13,18,19.20
2017,09,27,13,19,19.20
2017,09,27,13,20,19.20
2017,09,27,13,21,19.20
2017,09,27,13,22,19.30
2017,09,27,13,23,19.30
2017,09,27,13,24,19.30
2017,09,27,13,25,19.20
2017,09,27,13,26,19.20
2017,09,27,13,27,19.30
2017,09,27,13,28,19.30
2017,09,27,13,29,19.30
2017,09,27,13,30,19.40
2017,09,27,13,31,19.40
2017,09,27,13,32,19.40
2017,09,27,13,33,19.40
2017,09,27,13,34,19.40
2017,09,27,13,35,19.40
2017,09,27,13,36,19.30
2017,09,27,13,37,19.30
2017,09,27,13,38,19.30
2017,09,27,13,39,19.30
2017,09,27,13,40,19.30
2017,09,27,13,41,19.30
2017,09,27,13,42,19.30
2017,09,27,13,43,19.40
2017,09,27,13,44,19.40
2017,09,27,13,45,19.30
2017,09,27,13,46,19.30
2017,09,27,13,47,19.40
2017,09,27,13,48,19.50
2017,09,27,13,49,19.50
2017,09,27,13,50,19.60
2017,09,27,13,51,19.70
2017,09,27,13,52,19.70
2017,09,27,13,53,19.80
2017,09,27,13,54,19.80
2017,09,27,13,55,19.80
2017,09,27,13,56,19.80
2017,09,27,13,57,19.80
2017,09,27,13,58,19.90
2017,09,27,13,59,19.90
2017,09,27,14,00,19.90
2017,09,27,14,01,19.90
2017,09,27,14,02,19.90
2017,09,27,14,03,19.90
2017,09,27,14,04,19.90
2017,09,27,14,05,19.90
2017,09,27,14,06,19.90
2017,09,27,14,07,19.80
2017,09,27,14,08,19.80
2017,09,27,14,09,19.70
2017,09,27,14,10,19.70
2017,09,27,14,11,19.80
2017,09,27,14,12,19.70
2017,09,27,14,13,19.70
2017,09,27,14,14,19.60
2017,09,27,14,15,19.60
2017,09,27,14,16,19.50
2017,09,27,14,17,19.60
2017,09,27,14,18,19.60
2017,09,27,14,19,19.70
2017,09,27,14,20,19.70
2017,09,27,14,21,19.80
2017,09,27,14,22,19.80
2017,09,27,14,23,19.80
2017,09,27,14,24,19.80
2017,09,27,14,25,19.80
2017,09,27,14,26,19.90
2017,09,27,14,27,19.90
2017,09,27,14,28,19.90
2017,09,27,14,29,20.00
2017,09,27,14,30,20.00
2017,09,27,14,31,20.00
2017,09,27,14,32,20.10
2017,09,27,14,33,20.10
2017,09,27,14,34,20.00
2017,09,27,14,35,19.90
2017,09,27,14,36,20.00
2017,09,27,14,37,20.10
2017,09,27,14,38,20.10
2017,09,27,14,39,20.10
2017,09,27,14,40,20.10
2017,09,27,14,41,20.10
2017,09,27,14,42,20.10
2017,09,27,14,43,20.10
2017,09,27,14,44,20.20
2017,09,27,14,45,20.30
2017,09,27,14,46,20.30
2017,09,27,14,47,20.30
2017,09,27,14,48,20.30
2017,09,27,14,49,20.30
2017,09,27,14,50,20.30
2017,09,27,14,51,20.30
2017,09,27,14,52,20.30
2017,09,27,14,53,20.30
2017,09,27,14,54,20.30
2017,09,27,14,55,20.30
2017,09,27,14,56,20.40
2017,09,27,14,57,20.40
2017,09,27,14,58,20.40
2017,09,27,14,59,20.40
2017,09,27,15,00,20.30
2017,09,27,15,01,20.30
2017,09,27,15,02,20.40
2017,09,27,15,03,20.40
2017,09,27,15,04,20.40
2017,09,27,15,05,20.40
2017,09,27,15,06,20.50
2017,09,27,15,07,20.60
2017,09,27,15,08,20.60
2017,09,27,15,09,20.70
2017,09,27,15,10,20.80
2017,09,27,15,11,20.80
2017,09,27,15,12,20.80
2017,09,27,15,13,20.80
2017,09,27,15,14,20.80
2017,09,27,15,15,20.80
2017,09,27,15,16,20.70
2017,09,27,15,17,20.70
2017,09,27,15,18,20.70
2017,09,27,15,19,20.70
2017,09,27,15,20,20.70
2017,09,27,15,21,20.80
2017,09,27,15,22,20.90
2017,09,27,15,23,20.90
2017,09,27,15,24,21.00
2017,09,27,15,25,21.00
2017,09,27,15,26,21.10
2017,09,27,15,27,21.20
2017,09,27,15,28,21.20
2017,09,27,15,29,21.20
2017,09,27,15,30,21.10
2017,09,27,15,31,21.10
2017,09,27,15,32,21.10
2017,09,27,15,33,21.10
2017,09,27,15,34,21.00
2017,09,27,15,35,20.90
2017,09,27,15,36,20.80
2017,09,27,15,37,20.70
2017,09,27,15,38,20.70
2017,09,27,15,39,20.60
2017,09,27,15,40,20.60
2017,09,27,15,41,20.60
2017,09,27,15,42,20.50
2017,09,27,15,43,20.60
2017,09,27,15,44,20.60
2017,09,27,15,45,20.60
2017,09,27,15,46,20.60
2017,09,27,15,47,20.60
2017,09,27,15,48,20.60
2017,09,27,15,49,20.60
2017,09,27,15,50,20.60
2017,09,27,15,51,20.60
2017,09,27,15,52,20.60
2017,09,27,15,53,20.60
2017,09,27,15,54,20.70
2017,09,27,15,55,20.70
2017,09,27,15,56,20.80
2017,09,27,15,57,20.70
2017,09,27,15,58,20.70
2017,09,27,15,59,20.70
2017,09,27,16,00,20.80
2017,09,27,16,01,20.80
2017,09,27,16,02,20.90
2017,09,27,16,03,20.90
2017,09,27,16,04,20.90
2017,09,27,16,05,20.90
2017,09,27,16,06,20.90
2017,09,27,16,07,20.80
2017,09,27,16,08,20.80
2017,09,27,16,09,20.80
2017,09,27,16,10,20.70
2017,09,27,16,11,20.70
2017,09,27,16,12,20.70
2017,09,27,16,13,20.70
2017,09,27,16,14,20.70
2017,09,27,16,15,20.70
2017,09,27,16,16,20.70
2017,09,27,16,17,20.70
2017,09,27,16,18,20.80
2017,09,27,16,19,20.80
2017,09,27,16,20,20.80
2017,09,27,16,21,20.80
2017,09,27,16,22,20.80
2017,09,27,16,23,20.80
2017,09,27,16,24,20.80
2017,09,27,16,25,20.80
2017,09,27,16,26,20.80
2017,09,27,16,27,20.80
2017,09,27,16,28,20.80
2017,09,27,16,29,20.90
2017,09,27,16,30,20.90
2017,09,27,16,31,20.90
2017,09,27,16,32,20.80
2017,09,27,16,33,20.80
2017,09,27,16,34,20.80
2017,09,27,16,35,20.80
2017,09,27,16,36,20.70
2017,09,27,16,37,20.70
2017,09,27,16,38,20.70
2017,09,27,16,39,20.70
2017,09,27,16,40,20.70
2017,09,27,16,41,20.70
2017,09,27,16,42,20.70
2017,09,27,16,43,20.70
2017,09,27,16,44,20.70
2017,09,27,16,45,20.70
2017,09,27,16,46,20.70
2017,09,27,16,47,20.70
2017,09,27,16,48,20.70
2017,09,27,16,49,20.70
2017,09,27,16,50,20.70
2017,09,27,16,51,20.70
2017,09,27,16,52,20.70
2017,09,27,16,53,20.60
2017,09,27,16,54,20.70
2017,09,27,16,55,20.70
2017,09,27,16,56,20.70
2017,09,27,16,57,20.70
2017,09,27,16,58,20.60
2017,09,27,16,59,20.60
2017,09,27,17,00,20.60
2017,09,27,17,01,20.60
2017,09,27,17,02,20.60
2017,09,27,17,03,20.60
2017,09,27,17,04,20.70
2017,09,27,17,05,20.70
2017,09,27,17,06,20.70
2017,09,27,17,07,20.70
2017,09,27,17,08,20.70
2017,09,27,17,09,20.70
2017,09,27,17,10,20.60
2017,09,27,17,11,20.60
2017,09,27,17,12,20.60
2017,09,27,17,13,20.60
2017,09,27,17,14,20.60
2017,09,27,17,15,20.60
2017,09,27,17,16,20.60
2017,09,27,17,17,20.60
2017,09,27,17,18,20.60
2017,09,27,17,19,20.60
2017,09,27,17,20,20.60
2017,09,27,17,21,20.60
2017,09,27,17,22,20.60
2017,09,27,17,23,20.60
2017,09,27,17,24,20.60
2017,09,27,17,25,20.70
2017,09,27,17,26,20.70
2017,09,27,17,27,20.70
2017,09,27,17,28,20.70
2017,09,27,17,29,20.70
2017,09,27,17,30,20.70